Flag for Colombia Weather past 2 weeks in Bucaramanga, Colombia

Now
68 °F

Snow. Broken clouds.


Feels Like: 68 °F
Forecast: 70 / 81 °F
Wind: 2 mph from North

Location: Bucaramanga / Palonegro


UV Index: 10 (Very high)

Visibility: 4 mi


Pressure: 30.02 "Hg

Humidity: 100%

Dew point: 68 °F

Location of BucaramangaLocation

Historic Weather in Bucaramanga

°F

Bucaramanga temperature yesterday

Maximum temperature yesterday: 79 °F (at 10:00 AM)
Minimum temperature yesterday: 66 °F (at 6:00 AM)
Average temperature yesterday: 73 °F

Past Weeks' High & Low Weather Summary

 TemperatureHumidityPressure
High82 °F (Apr 11, 12:00 PM)100% (Apr 7, 6:00 AM)30.07 "Hg (Apr 7, 6:00 AM)
Low66 °F (Apr 13, 6:00 AM)54% (Apr 11, 10:00 AM)29.81 "Hg (Apr 13, 4:00 PM)
Average74 °F77%29.96 "Hg
* Reported Apr 2 7:00 AM — Apr 17 7:00 AM, Bucaramanga, Weather by CustomWeather, © 2014

Note: Actual official high and low records may vary slightly from our data, if they occured in-between our weather recording intervals... More about our weather records

Advertising

Historic Weather Conditions — Data for Previous 24 hours

 ConditionsComfort  
Time TempWeatherWind HumidityBarometerVisibility
7:00 AM
Apr 17
68 °FBroken clouds.2 mph100%29.99 "Hg4 mi
6:00 AM68 °FBroken clouds.2 mph100%29.97 "Hg4 mi
11:00 PM
Apr 16
70 °FPassing clouds.No wind94%29.97 "HgN/A
10:00 PM70 °FPassing clouds.No wind94%29.97 "HgN/A
9:00 PM70 °FPassing clouds.No wind94%29.96 "HgN/A
8:00 PM70 °FPassing clouds.2 mph94%29.94 "HgN/A
7:00 PM70 °FPassing clouds.3 mph94%29.92 "HgN/A
6:00 PM72 °FScattered clouds.6 mph94%29.91 "HgN/A
5:00 PM72 °FScattered clouds.5 mph88%29.88 "HgN/A
4:00 PM77 °FScattered clouds.7 mph69%29.88 "HgN/A
3:00 PM77 °FScattered clouds.8 mph69%29.90 "HgN/A
2:00 PM77 °FScattered clouds.6 mph69%29.93 "HgN/A
1:00 PM77 °FScattered clouds.7 mph69%29.97 "HgN/A
12:00 PM79 °FScattered clouds.2 mph61%29.99 "HgN/A
11:00 AM77 °FPartly sunny.9 mph65%30.01 "HgN/A
10:00 AM79 °FScattered clouds.8 mph61%30.04 "HgN/A
9:00 AM73 °FScattered clouds.7 mph74%30.05 "HgN/A
8:00 AM70 °FScattered clouds.6 mph83%30.03 "HgN/A
Weather by CustomWeather, © 2014

See weather overview